RLB2134 RPVM-RPVZ

Flight info

Callsign RLB2134
Flight time 0h 30m
Altitude 12000
Route EMDEE4P EMDEE
Aircraft AT76/M-SDFGIRY/S

Departure

Time 2026-04-21 23:22
Airport Mactan Cebu International Airport (RPVM)

Arrival

Time 2026-04-21 23:52
Airport Siquijor Airport (RPVZ)
Time Latitude Longitude Altitude Speed Heading
2026-04-21 23:00 10.31729 123.98139 35 ft 0 kts 316°
2026-04-21 23:08 10.31728 123.98140 17 ft 1 kts 316°
2026-04-21 23:08 10.31718 123.98151 35 ft 3 kts 308°
2026-04-21 23:08 10.31707 123.98167 35 ft 3 kts 286°
2026-04-21 23:09 10.31705 123.98185 35 ft 3 kts 243°
2026-04-21 23:09 10.31711 123.98193 35 ft 1 kts 225°
2026-04-21 23:09 10.31713 123.98195 35 ft 0 kts 225°
2026-04-21 23:13 10.31699 123.98181 35 ft 6 kts 225°
2026-04-21 23:13 10.31665 123.98147 35 ft 1 kts 224°
2026-04-21 23:13 10.31641 123.98125 35 ft 7 kts 213°
2026-04-21 23:14 10.31582 123.98125 35 ft 9 kts 145°
2026-04-21 23:14 10.31539 123.98172 35 ft 9 kts 133°
2026-04-21 23:14 10.31498 123.98216 36 ft 8 kts 141°
2026-04-21 23:14 10.31441 123.98221 36 ft 9 kts 204°
2026-04-21 23:15 10.31419 123.98203 36 ft 7 kts 224°
2026-04-21 23:15 10.31397 123.98182 36 ft 7 kts 224°
2026-04-21 23:15 10.31299 123.98084 35 ft 19 kts 225°
2026-04-21 23:15 10.31212 123.97994 35 ft 17 kts 224°
2026-04-21 23:16 10.31126 123.97909 35 ft 18 kts 225°
2026-04-21 23:16 10.31071 123.97853 34 ft 14 kts 224°
2026-04-21 23:16 10.30996 123.97779 34 ft 15 kts 225°
2026-04-21 23:16 10.30918 123.97700 35 ft 16 kts 224°
2026-04-21 23:17 10.30835 123.97618 35 ft 17 kts 224°
2026-04-21 23:17 10.30773 123.97557 35 ft 11 kts 224°
2026-04-21 23:17 10.30715 123.97498 35 ft 13 kts 225°
2026-04-21 23:17 10.30646 123.97430 36 ft 15 kts 225°
2026-04-21 23:18 10.30574 123.97358 35 ft 12 kts 224°
2026-04-21 23:18 10.30509 123.97291 36 ft 14 kts 225°
2026-04-21 23:18 10.30436 123.97218 36 ft 15 kts 224°
2026-04-21 23:18 10.30359 123.97139 35 ft 16 kts 225°
2026-04-21 23:19 10.30281 123.97061 35 ft 14 kts 224°
2026-04-21 23:19 10.30206 123.96986 35 ft 16 kts 225°
2026-04-21 23:19 10.30128 123.96908 35 ft 16 kts 224°
2026-04-21 23:19 10.30046 123.96826 35 ft 17 kts 225°
2026-04-21 23:20 10.29977 123.96756 35 ft 14 kts 225°
2026-04-21 23:20 10.29915 123.96704 35 ft 10 kts 192°
2026-04-21 23:20 10.29855 123.96735 34 ft 10 kts 137°
2026-04-21 23:20 10.29804 123.96786 33 ft 10 kts 134°
2026-04-21 23:21 10.29752 123.96841 31 ft 15 kts 134°
2026-04-21 23:21 10.29730 123.96911 30 ft 8 kts 63°
2026-04-21 23:21 10.29773 123.96959 30 ft 24 kts 44°
2026-04-21 23:21 10.30028 123.97214 30 ft 78 kts 44°
2026-04-21 23:22 10.30534 123.97728 43 ft 124 kts 44°
2026-04-21 23:22 10.31171 123.98335 386 ft 130 kts 45°
2026-04-21 23:22 10.31868 123.99011 574 ft 142 kts 44°
2026-04-21 23:22 10.32572 123.99719 939 ft 143 kts 45°
2026-04-21 23:23 10.33261 124.00440 1294 ft 142 kts 46°
2026-04-21 23:23 10.33940 124.01160 1630 ft 140 kts 46°
2026-04-21 23:23 10.34613 124.01875 1969 ft 140 kts 47°
2026-04-21 23:23 10.35191 124.02654 2274 ft 141 kts 73°
2026-04-21 23:24 10.34945 124.03670 2261 ft 169 kts 128°
2026-04-21 23:24 10.33859 124.04230 2389 ft 181 kts 161°
2026-04-21 23:24 10.32832 124.04906 2663 ft 176 kts 132°
2026-04-21 23:24 10.31984 124.05794 3034 ft 175 kts 129°
2026-04-21 23:25 10.31194 124.06734 3411 ft 174 kts 125°
2026-04-21 23:25 10.30458 124.07713 3762 ft 175 kts 123°
2026-04-21 23:25 10.29744 124.08712 4137 ft 174 kts 123°
2026-04-21 23:25 10.29034 124.09705 4534 ft 174 kts 123°
2026-04-21 23:26 10.28323 124.10700 4884 ft 175 kts 123°
2026-04-21 23:26 10.27603 124.11701 5214 ft 176 kts 123°
2026-04-21 23:26 10.26875 124.12709 5541 ft 178 kts 124°
2026-04-21 23:26 10.26143 124.13726 5868 ft 179 kts 124°
2026-04-21 23:27 10.25401 124.14751 6188 ft 181 kts 124°
2026-04-21 23:27 10.24649 124.15793 6493 ft 183 kts 124°
2026-04-21 23:27 10.23903 124.16827 6807 ft 185 kts 124°
2026-04-21 23:27 10.23141 124.17885 7124 ft 186 kts 124°
2026-04-21 23:28 10.22374 124.18949 7443 ft 187 kts 124°
2026-04-21 23:28 10.21600 124.20018 7761 ft 188 kts 124°
2026-04-21 23:28 10.20822 124.21096 8067 ft 190 kts 125°
2026-04-21 23:28 10.20030 124.22177 8349 ft 191 kts 129°
2026-04-21 23:29 10.18890 124.22840 8603 ft 197 kts 172°
2026-04-21 23:29 10.17512 124.22802 8925 ft 200 kts 186°
2026-04-21 23:29 10.16140 124.22554 9258 ft 201 kts 191°
2026-04-21 23:29 10.14778 124.22242 9585 ft 201 kts 193°
2026-04-21 23:30 10.13410 124.21920 9902 ft 202 kts 193°
2026-04-21 23:30 10.12039 124.21611 10197 ft 202 kts 192°
2026-04-21 23:30 10.10658 124.21309 10503 ft 202 kts 192°
2026-04-21 23:30 10.09297 124.21027 10792 ft 202 kts 192°
2026-04-21 23:31 10.07917 124.20746 11107 ft 202 kts 192°
2026-04-21 23:31 10.06535 124.20470 11416 ft 202 kts 192°
2026-04-21 23:31 10.05149 124.20194 11706 ft 203 kts 193°
2026-04-21 23:31 10.03744 124.19909 11874 ft 211 kts 193°
2026-04-21 23:32 10.02257 124.19606 11937 ft 224 kts 193°
2026-04-21 23:32 10.00684 124.19290 11950 ft 236 kts 192°
2026-04-21 23:32 9.99036 124.18959 11968 ft 246 kts 193°
2026-04-21 23:32 9.97320 124.18615 11963 ft 255 kts 192°
2026-04-21 23:33 9.95557 124.18262 11974 ft 261 kts 192°
2026-04-21 23:33 9.93751 124.17899 11979 ft 267 kts 192°
2026-04-21 23:33 9.91914 124.17534 11986 ft 271 kts 192°
2026-04-21 23:33 9.90051 124.17161 11978 ft 274 kts 192°
2026-04-21 23:34 9.88171 124.16782 11977 ft 277 kts 192°
2026-04-21 23:34 9.86270 124.16399 11980 ft 279 kts 192°
2026-04-21 23:34 9.84362 124.16018 11976 ft 280 kts 192°
2026-04-21 23:34 9.82447 124.15634 11976 ft 281 kts 192°
2026-04-21 23:35 9.80635 124.15111 11974 ft 277 kts 208°
2026-04-21 23:35 9.79068 124.14024 11979 ft 278 kts 220°
2026-04-21 23:35 9.77587 124.12711 11983 ft 280 kts 223°
2026-04-21 23:35 9.76159 124.11405 11978 ft 281 kts 222°
2026-04-21 23:36 9.74683 124.10102 11973 ft 281 kts 220°
2026-04-21 23:36 9.73176 124.08835 11973 ft 281 kts 219°
2026-04-21 23:36 9.71667 124.07575 11980 ft 281 kts 220°
2026-04-21 23:36 9.70160 124.06310 11978 ft 281 kts 220°
2026-04-21 23:37 9.68651 124.05046 11977 ft 281 kts 220°
2026-04-21 23:37 9.67141 124.03777 11978 ft 282 kts 220°
2026-04-21 23:37 9.65632 124.02509 11975 ft 282 kts 220°
2026-04-21 23:37 9.64119 124.01240 11974 ft 282 kts 220°
2026-04-21 23:38 9.62606 123.99973 11968 ft 282 kts 220°
2026-04-21 23:38 9.61098 123.98704 11967 ft 282 kts 220°
2026-04-21 23:38 9.59608 123.97456 11975 ft 282 kts 220°
2026-04-21 23:38 9.58078 123.96173 11972 ft 282 kts 220°
2026-04-21 23:39 9.56570 123.94906 11969 ft 281 kts 220°
2026-04-21 23:39 9.55084 123.93660 11970 ft 280 kts 220°
2026-04-21 23:39 9.53605 123.92420 11968 ft 272 kts 220°
2026-04-21 23:39 9.52158 123.91208 11967 ft 267 kts 220°
2026-04-21 23:40 9.50742 123.90020 11969 ft 263 kts 220°
2026-04-21 23:40 9.49343 123.88847 11970 ft 259 kts 220°
2026-04-21 23:40 9.47958 123.87687 11967 ft 257 kts 220°
2026-04-21 23:40 9.46588 123.86537 11965 ft 255 kts 220°
2026-04-21 23:41 9.45222 123.85394 11970 ft 254 kts 220°
2026-04-21 23:41 9.43859 123.84250 11971 ft 253 kts 220°
2026-04-21 23:41 9.42502 123.83115 11970 ft 252 kts 220°
2026-04-21 23:41 9.41153 123.81983 11967 ft 252 kts 220°
2026-04-21 23:42 9.39804 123.80855 11965 ft 251 kts 220°
2026-04-21 23:42 9.38461 123.79728 11970 ft 251 kts 220°
2026-04-21 23:42 9.37118 123.78601 11969 ft 250 kts 219°
2026-04-21 23:42 9.35985 123.77296 11973 ft 248 kts 240°
2026-04-21 23:43 9.35208 123.75708 11744 ft 258 kts 245°
2026-04-21 23:43 9.34475 123.74030 11385 ft 263 kts 246°
2026-04-21 23:43 9.33715 123.72321 11029 ft 267 kts 244°
2026-04-21 23:43 9.32894 123.70620 10619 ft 271 kts 243°
2026-04-21 23:44 9.32029 123.68903 10184 ft 276 kts 243°
2026-04-21 23:44 9.31169 123.67171 9737 ft 275 kts 243°
2026-04-21 23:44 9.30321 123.65469 9260 ft 274 kts 243°
2026-04-21 23:44 9.29466 123.63750 8786 ft 273 kts 243°
2026-04-21 23:45 9.28615 123.62034 8341 ft 273 kts 243°
2026-04-21 23:45 9.27020 123.58827 7420 ft 239 kts 242°
2026-04-21 23:45 9.26291 123.57359 6963 ft 229 kts 242°
2026-04-21 23:46 9.25586 123.55944 6503 ft 222 kts 242°
2026-04-21 23:46 9.24903 123.54566 6051 ft 216 kts 242°
2026-04-21 23:46 9.24233 123.53219 5582 ft 213 kts 242°
2026-04-21 23:46 9.23790 123.51832 5113 ft 204 kts 263°
2026-04-21 23:47 9.23626 123.50408 4654 ft 204 kts 263°
2026-04-21 23:47 9.23467 123.48986 4193 ft 204 kts 264°
2026-04-21 23:47 9.23306 123.47560 3729 ft 203 kts 264°
2026-04-21 23:47 9.23145 123.46137 3290 ft 203 kts 264°
2026-04-21 23:48 9.22938 123.44733 2828 ft 199 kts 252°
2026-04-21 23:48 9.22147 123.43625 2367 ft 194 kts 220°
2026-04-21 23:48 9.21143 123.42722 1926 ft 191 kts 220°
2026-04-21 23:48 9.20151 123.41892 1675 ft 178 kts 219°
2026-04-21 23:49 9.19213 123.41145 1556 ft 165 kts 218°
2026-04-21 23:49 9.18317 123.40560 1519 ft 143 kts 190°
2026-04-21 23:49 9.17480 123.40771 1501 ft 116 kts 130°
2026-04-21 23:49 9.16881 123.41316 1508 ft 120 kts 128°
2026-04-21 23:50 9.16254 123.41920 1517 ft 127 kts 126°
2026-04-21 23:50 9.15939 123.42667 1544 ft 110 kts 77°
2026-04-21 23:50 9.16346 123.43205 1218 ft 106 kts 23°
2026-04-21 23:50 9.17084 123.43433 1144 ft 111 kts 19°
2026-04-21 23:51 9.17793 123.43773 1026 ft 113 kts 33°
2026-04-21 23:51 9.18412 123.44302 858 ft 122 kts 40°
2026-04-21 23:51 9.18946 123.44883 672 ft 109 kts 43°
2026-04-21 23:51 9.19457 123.45397 481 ft 99 kts 42°
2026-04-21 23:52 9.19927 123.45839 345 ft 89 kts 40°
2026-04-21 23:52 9.20383 123.46266 182 ft 90 kts 39°
2026-04-21 23:52 9.20821 123.46680 60 ft 78 kts 43°
2026-04-21 23:52 9.21056 123.46900 60 ft 13 kts 45°
2026-04-21 23:53 9.21105 123.46950 65 ft 9 kts 44°
2026-04-21 23:53 9.21211 123.47049 61 ft 31 kts 41°
2026-04-21 23:53 9.21309 123.47138 63 ft 10 kts 43°
2026-04-21 23:53 9.21347 123.47187 55 ft 7 kts 78°
2026-04-21 23:54 9.21345 123.47205 53 ft 6 kts 105°
2026-04-21 23:54 9.21324 123.47225 47 ft 1 kts 161°
2026-04-21 23:54 9.21303 123.47233 43 ft 1 kts 139°
2026-04-21 23:54 9.21297 123.47240 41 ft 0 kts 134°